2021-015T (47716 NORAD) Tracking and Keplerian Element Data

This shows tracking and keplerian element data for the satellite.

Feedback or suggestion? Click here.




ElementValue
Catalog47716
Name2021-015T
Epoch Orbit436
Epoch Day88.72024933
Epoch Year2021
RAAN163.7694
Inclination97.4584
Eccentricity0.0011773
Argument of Perigee179.5937
Mean Anonmoly180.5458
Mean Motion15.21057466
Decay Rate-7E-07
L11 47716U 21015T 21088.72024933 -.00000070 00000-0 00000-0 0 9991
L22 47716 97.4584 163.7694 0011773 179.5937 180.5458 15.21057466 4361

Live tracking and technical data element details for 2021-015T (NORAD 47716). 2021-015T can be tracked NOW for your location showing map with azimuth and elevation plus other details from your city location.

Track the satellite on the map from your city or location and see movement details for azimuth, elevation, latitude, longitude, range, height, and movement on the map or in text.







IsCatalogInMostPopularTable: catalog: 47716, numindb: 9
Update: records affected: 1



GetName: 47716 2021-015T

Hit Count: updated at: Sat, 10 Apr 2021 18:50:32 GMT